Location: Broekland
(52.3610°N, 6.2005°E)
Time: 08:34:11
(UTC+00:00)

ISS - Visible Passes

Search period start: 20 January 2026 00:00
Search period end: 30 January 2026 00:00
Orbit: 413 x 424 km, 51.6° (Epoch: 19 January)

Date Brightness Start Highest point End Pass type
(mag) Time Alt. Az. Time Alt. Az. Time Alt. Az.
20 Jan -3.4 16:51:58 10° WSW 16:55:16 59° SSE 16:58:22 11° E visible
20 Jan -3.1 18:28:37 10° W 18:31:19 54° WSW 18:31:19 54° WSW visible
21 Jan -3.8 17:40:45 10° W 17:44:06 81° S 17:45:24 34° E visible
21 Jan -0.7 19:17:31 10° W 19:18:21 16° W 19:18:21 16° W visible
22 Jan -3.7 16:52:52 10° W 16:56:13 77° S 16:59:30 10° E visible
22 Jan -3.1 18:29:37 10° W 18:32:26 54° WSW 18:32:26 54° WSW visible
23 Jan -3.7 17:41:41 10° W 17:45:01 73° S 17:46:33 29° ESE visible
23 Jan -0.8 19:18:33 10° W 19:19:29 16° W 19:19:29 16° W visible
24 Jan -3.7 16:53:43 10° W 16:57:04 79° S 17:00:25 10° E visible
24 Jan -2.7 18:30:31 10° W 18:33:38 40° SSW 18:33:38 40° SSW visible
25 Jan -3.1 17:42:30 10° W 17:45:45 51° SSW 17:47:50 20° SE visible
25 Jan -0.7 19:19:52 10° WSW 19:20:48 14° WSW 19:20:48 14° WSW visible
26 Jan -3.4 16:54:28 10° W 16:57:47 64° SSW 17:01:06 10° ESE visible
26 Jan -1.7 18:31:30 10° W 18:34:11 22° SSW 18:35:05 20° S visible
27 Jan -2.0 17:43:17 10° W 17:46:16 30° SSW 17:49:16 10° SE visible
28 Jan -2.5 16:55:08 10° W 16:58:19 41° SSW 17:01:28 10° SE visible
28 Jan -0.7 18:33:15 10° WSW 18:34:24 11° SW 18:35:34 10° SSW visible
29 Jan -0.9 17:44:20 10° WSW 17:46:32 17° SW 17:48:44 10° S visible
